Terug naar catalogus

STARLINK-3113

ActiefCommunicatieVLEO
NORAD 49735·PAYLOAD·🇺🇸 United States

Gelanceerd Dec 2, 2021 vanaf Cape Canaveral Space Force Station

Loading…

Volgende Passages (komende 24 uur)

TLE

VersSource: CelesTrak SupGP

Epoch: Sep 15, 2026, 02:19 UTC

1 49735C 21115M   26258.09701389  .00012724  00000+0  37611-3 0  2582
2 49735  53.1599  14.6928 0001193  91.9175 357.5430 15.34370213    15

Volg STARLINK-3113 in realtime met AllMySat

Download on the App Store